Regional Weather Roundup
Issued by NWS Goodland, KS

Home | Current Version | Previous Version | Graphics & Text | Print | Product List | Glossary On
Versions: 1 2 3 4 5 6 7 8 9 10 11 12 13 14 15 16 17 18 19 20 21 22 23 24 25 26 27 28 29 30 31 32 33 34 35 36 37 38 39 40 41 42 43 44 45 46 47 48 49 50
000
ASUS43 KGLD 182308
RWRGLD

GOODLAND FORECAST AREA HOURLY WEATHER ROUNDUP
NATIONAL WEATHER SERVICE GOODLAND KS
500 PM MDT SAT APR 18 2015

...OFFICIAL OBSERVATIONS...

CITY           SKY/WX    TMP DP  RH WIND       PRES   REMARKS
GOODLAND KS    MOSUNNY   59  41  51 CALM      29.75F
HILL CITY KS   CLOUDY    64  47  53 SE24G31   29.74R
IMPERIAL NEB   LGT RAIN  55  42  61 SW12      29.80R
MCCOOK NEB     MOSUNNY   70  40  33 SE8       29.72F
AKRON CO       CLOUDY    49  38  65 N12       29.84R
BURLINGTON CO  CLOUDY    50  39  66 NW22      29.80F
LIMON CO       PTSUNNY   47  35  63 N13       29.83S
$$

...UNOFFICIAL OBSERVATIONS...

CITY           SKY/WX    TMP DP  RH WIND       PRES   REMARKS
COLBY KS       MOSUNNY   66  41  39 S15G23    29.75S
GOVE KS          N/A     70  32  24 MISG        N/A
LENORA KS        N/A     61  32  33 MISG        N/A
NORTON KS      MOSUNNY   68  48  49 NE5       29.72S
SHARON SPRINGS   N/A     58  45  62 MISG        N/A
YUMA CO          N/A     47  42  84 NW5         N/A
$$


USA.gov is the U.S. government's official web portal to all federal, state and local government web resources and services.